Key West, FL

5:23 AM EDT on August 23, 2017 (GMT -0400)
Key West International

Weather History for KEYW - December, 2014

Change the Weather History Date:

Sunday, December 14, 2014

  Actual Average Record
Temperature  
Mean Temperature 67 °F 72 °F  
Max Temperature 71 °F 76 °F 84 °F (1963)
Min Temperature 63 °F 67 °F 50 °F (1962)
Degree Days  
Heating Degree Days 0 0  
Month to date heating degree days 5 0  
Since 1 July heating degree days 6 1  
Cooling Degree Days 2 7  
Month to date cooling degree days 90 110  
Year to date cooling degree days 4933 4643  
Growing Degree Days 17 (Base 50)    
Moisture  
Dew Point 54 °F    
Average Humidity 71    
Maximum Humidity 84    
Minimum Humidity 57    
Precipitation  
Precipitation 0.00 in 0.07 in 2.40 in (1871)
Month to date precipitation 0.01 1.11  
Year to date precipitation 34.38 38.72  
Snow  
Snow 0.00 in - - ()
Month to date snowfall 0.0  
Since 1 July snowfall 0.0  
Snow Depth 0.00 in    
Sea Level Pressure  
Sea Level Pressure 30.07 in    
Wind  
Wind Speed 9 mph (NNE)    
Max Wind Speed 17 mph    
Max Gust Speed 21 mph    
Visibility 10 miles    
Events      
T = Trace of Precipitation, MM = Missing Value Source: NWS Daily Summary

Daily Weather History Graph

Daily Weather History Graph

Search for Another Location

Airport or City:

Trip Planner

Search our weather history database for the weather conditions in past years. The results will help you decide how hot, cold, wet, or windy it might be!

Date:

Astronomy

Dec. 14, 2014 Rise Set
Actual Time 7:02 AM EST 5:40 PM EST
Civil Twilight 6:37 AM EST 6:05 PM EST
Nautical Twilight 6:09 AM EST 6:33 PM EST
Astronomical Twilight 5:41 AM EST 7:01 PM EST
Moon 12:06 AM EST (12/14) 12:31 PM EST (12/14)
Length of Visible Light 11h 27m
Length of Day
10h 37m
Waning Gibbous, 48% of the Moon is Illuminated
Dec 14
Waning Gibbous
Dec 21
New
Dec 28
First Quarter
Jan 4
Full
Jan 13
Last Quarter

Hourly Weather History & Observations

Time (EST) Temp. Dew Point Humidity Pressure Visibility Wind Dir Wind Speed Gust Speed Precip Events Conditions
12:53 AM 64.9 °F 52.0 °F 63% 30.07 in 10.0 mi NNE 9.2 mph - N/A   Clear
1:53 AM 64.9 °F 52.0 °F 63% 30.06 in 10.0 mi NNE 9.2 mph - N/A   Clear
2:53 AM 64.0 °F 53.1 °F 67% 30.06 in 10.0 mi North 9.2 mph - N/A   Clear
3:53 AM 64.0 °F 53.1 °F 67% 30.05 in 10.0 mi NNE 10.4 mph - N/A   Clear
4:53 AM 64.0 °F 55.9 °F 75% 30.05 in 10.0 mi NNE 9.2 mph - N/A   Partly Cloudy
5:53 AM 64.0 °F 55.9 °F 75% 30.06 in 10.0 mi NNE 8.1 mph - N/A   Scattered Clouds
6:53 AM 63.0 °F 57.0 °F 81% 30.08 in 10.0 mi NNE 6.9 mph - N/A   Clear
7:53 AM 64.9 °F 57.0 °F 75% 30.09 in 10.0 mi NNE 9.2 mph - N/A   Scattered Clouds
8:53 AM 66.0 °F 55.9 °F 70% 30.11 in 10.0 mi NNE 10.4 mph - N/A   Partly Cloudy
9:53 AM 66.9 °F 54.0 °F 63% 30.12 in 10.0 mi NNE 12.7 mph - N/A   Clear
10:53 AM 68.0 °F 54.0 °F 61% 30.11 in 10.0 mi North 12.7 mph - N/A   Clear
11:53 AM 68.0 °F 55.0 °F 63% 30.09 in 10.0 mi NNE 11.5 mph - N/A   Clear
12:53 PM 70.0 °F 55.0 °F 59% 30.07 in 10.0 mi NNE 10.4 mph - 0.00 in   Clear
1:53 PM 71.1 °F 55.9 °F 59% 30.04 in 10.0 mi NNE 8.1 mph - N/A   Clear
2:53 PM 70.0 °F 55.9 °F 61% 30.04 in 10.0 mi NNE 10.4 mph - N/A   Clear
3:53 PM 70.0 °F 55.9 °F 61% 30.04 in 10.0 mi NNE 8.1 mph - N/A   Clear
4:53 PM 69.1 °F 54.0 °F 58% 30.04 in 10.0 mi North 9.2 mph - N/A   Clear
5:53 PM 66.9 °F 52.0 °F 59% 30.04 in 10.0 mi North 6.9 mph - N/A   Clear
6:53 PM 66.0 °F 53.1 °F 63% 30.05 in 10.0 mi North 5.8 mph - N/A   Clear
7:53 PM 66.0 °F 53.1 °F 63% 30.06 in 10.0 mi North 6.9 mph - N/A   Clear
8:53 PM 66.0 °F 54.0 °F 65% 30.07 in 10.0 mi North 6.9 mph - N/A   Clear
9:53 PM 64.9 °F 54.0 °F 68% 30.08 in 10.0 mi NNE 4.6 mph - N/A   Clear
10:53 PM 64.9 °F 55.0 °F 70% 30.07 in 10.0 mi North 5.8 mph - N/A   Clear
11:53 PM 64.9 °F 55.0 °F 70% 30.06 in 10.0 mi North 5.8 mph - N/A   Clear